This is the latest recevied weather packets stored in our database for station/object PP5CFL-2. If no packets are shown the sender has not sent any weather packets the latest 10 day(s).
| Time | Temp. | Humidity | Pressure | Rain* | Wind** | Luminosity | Snow |
|---|---|---|---|---|---|---|---|
| 1787940109 | 31.11° C | 52% | 1002.3 hPa | - | - | - | - |
| 1787939809 | 31.11° C | 52% | 1002.3 hPa | - | - | - | - |
| 1787939509 | 31.67° C | 52% | 1002.5 hPa | - | - | - | - |
| 1787939209 | 31.67° C | 51% | 1002.4 hPa | - | - | - | - |
| 1787938909 | 31.67° C | 52% | 1002.6 hPa | - | - | - | - |
| 1787938609 | 31.67° C | 52% | 1002.5 hPa | - | - | - | - |
| 1787938309 | 31.67° C | 51% | 1002.5 hPa | - | - | - | - |
| 1787938009 | 31.67° C | 53% | 1002.6 hPa | - | - | - | - |
| 1787937709 | 31.67° C | 55% | 1002.7 hPa | - | - | - | - |
| 1787937409 | 31.67° C | 54% | 1002.6 hPa | - | - | - | - |
| 1787937110 | 31.67° C | 54% | 1002.5 hPa | - | - | - | - |
| 1787936809 | 32.22° C | 58% | 1002.8 hPa | - | - | - | - |
| 1787936509 | 31.67° C | 60% | 1002.7 hPa | - | - | - | - |
| 1787936209 | 31.67° C | 59% | 1002.8 hPa | - | - | - | - |
| 1787935909 | 31.67° C | 60% | 1002.9 hPa | - | - | - | - |
| 1787935609 | 31.67° C | 60% | 1003.2 hPa | - | - | - | - |
| 1787935309 | 31.67° C | 60% | 1003.2 hPa | - | - | - | - |
| 1787935009 | 31.67° C | 59% | 1003.2 hPa | - | - | - | - |
| 1787934709 | 31.67° C | 58% | 1003.1 hPa | - | - | - | - |
| 1787934409 | 31.67° C | 61% | 1003.3 hPa | - | - | - | - |
| 1787934109 | 31.67° C | 65% | 1003.4 hPa | - | - | - | - |
| 1787933809 | 31.67° C | 64% | 1003.4 hPa | - | - | - | - |
| 1787933509 | 32.22° C | 65% | 1003.3 hPa | - | - | - | - |
| 1787933209 | 31.67° C | 65% | 1003.5 hPa | - | - | - | - |
| 1787932909 | 31.67° C | 64% | 1003.8 hPa | - | - | - | - |
* Rain since midnight (hover to see other rain measurements)
** Current wind speed in m/s (hover to see current wind gust speed)